Location: Balaclava NSW 2575, Australia
(34.4510°S, 150.4953°E)
Time: 12:44:53
(UTC+10:00)

XW-2F - Visible Passes

Search period start: 05 August 2021 00:00
Search period end: 15 August 2021 00:00
Orbit: 498 x 518 km, 97.5° (Epoch: 04 August)

Date Brightness Start Highest point End Pass type
(mag) Time Alt. Az. Time Alt. Az. Time Alt. Az.
05 Aug ? 05:32:17 10° N 05:36:04 72° W 05:39:54 10° SSW visible
05 Aug ? 18:40:23 10° S 18:43:41 30° WSW 18:46:57 10° NW visible
06 Aug ? 05:15:12 10° NNE 05:18:57 64° ESE 05:22:45 10° S visible
06 Aug ? 18:22:58 10° S 18:26:38 52° WSW 18:30:13 10° NNW visible
07 Aug ? 04:58:22 10° NE 05:01:52 37° ESE 05:05:25 10° S visible
07 Aug ? 18:05:46 10° SSE 18:09:31 88° E 18:13:12 10° NNW visible
08 Aug ? 04:41:50 10° ENE 04:44:50 22° ESE 04:47:51 10° SSE visible
08 Aug ? 06:15:53 10° NW 06:18:39 19° W 06:21:25 10° SW visible
08 Aug ? 17:48:44 10° SSE 17:52:22 48° E 17:55:56 10° N visible
09 Aug ? 04:25:48 10° ENE 04:27:50 14° ESE 04:29:53 10° SE visible
09 Aug ? 05:58:01 10° NNW 06:01:25 31° W 06:04:51 10° SSW visible
09 Aug ? 19:06:39 10° SW 19:08:47 15° WSW 19:10:54 10° WNW visible
10 Aug ? 05:40:31 10° N 05:44:13 55° W 05:47:59 10° SSW visible
10 Aug ? 18:48:44 10° SSW 18:51:46 24° WSW 18:54:45 10° NW visible
11 Aug ? 05:23:17 10° NNE 05:27:05 84° ESE 05:30:54 10° S visible
11 Aug ? 18:31:12 10° S 18:34:43 39° WSW 18:38:10 10° NW visible
12 Aug ? 05:06:20 10° NNE 05:09:58 47° ESE 05:13:39 10° S visible
12 Aug ? 18:13:52 10° S 18:17:36 71° WSW 18:21:16 10° NNW visible
13 Aug ? 04:49:37 10° NE 04:52:54 28° ESE 04:56:11 10° SSE visible
13 Aug ? 17:56:44 10° SSE 18:00:27 64° E 18:04:05 10° N visible
14 Aug ? 04:33:18 10° ENE 04:35:51 17° ESE 04:38:24 10° SSE visible
14 Aug ? 06:06:23 10° NNW 06:09:32 25° W 06:12:41 10° SW visible
14 Aug ? 19:15:23 10° SW 19:16:45 12° WSW 19:18:07 10° W visible
